TimeEST,TemperatureF,Dew PointF,Humidity,Sea Level PressureIn,VisibilityMPH,Wind Direction,Wind SpeedMPH,Gust SpeedMPH,PrecipitationIn,Events,Conditions,WindDirDegrees,DateUTC
12:00 AM,30.2,26.6,86,29.63,25.0,WNW,9.2,-,N/A,,Mostly Cloudy,300,2012-12-11 05:00:00
1:00 AM,28.4,23.0,80,29.67,25.0,NW,13.8,-,N/A,,Mostly Cloudy,320,2012-12-11 06:00:00
2:00 AM,24.8,19.4,80,29.72,25.0,NW,10.4,20.7,N/A,,Mostly Cloudy,320,2012-12-11 07:00:00
3:00 AM,21.2,15.8,80,29.77,25.0,NW,6.9,-,N/A,,Mostly Cloudy,310,2012-12-11 08:00:00
4:00 AM,19.4,14.0,80,29.79,25.0,West,3.5,-,N/A,,Scattered Clouds,280,2012-12-11 09:00:00
5:00 AM,15.8,10.4,79,29.83,25.0,West,3.5,-,N/A,,Partly Cloudy,280,2012-12-11 10:00:00
6:00 AM,15.8,10.4,79,29.86,25.0,WNW,4.6,-,N/A,,Partly Cloudy,290,2012-12-11 11:00:00
7:00 AM,12.2,8.6,85,29.91,25.0,West,4.6,-,N/A,,Partly Cloudy,280,2012-12-11 12:00:00
8:00 AM,12.2,8.6,85,29.94,25.0,West,4.6,-,N/A,,Partly Cloudy,280,2012-12-11 13:00:00
9:00 AM,14.0,8.6,79,29.98,25.0,West,3.5,-,N/A,,Partly Cloudy,260,2012-12-11 14:00:00
10:00 AM,15.8,10.4,79,30.00,25.0,Variable,2.3,-,N/A,,Partly Cloudy,0,2012-12-11 15:00:00
11:00 AM,17.6,12.2,79,29.99,25.0,West,3.5,-,N/A,,Partly Cloudy,270,2012-12-11 16:00:00
12:00 PM,19.4,14.0,80,30.00,25.0,SW,6.9,-,N/A,,Mostly Cloudy,220,2012-12-11 17:00:00
1:00 PM,19.4,15.8,86,30.02,25.0,WSW,5.8,-,N/A,,Mostly Cloudy,240,2012-12-11 18:00:00
2:00 PM,19.4,14.0,80,30.03,35.0,WSW,4.6,-,N/A,,Mostly Cloudy,240,2012-12-11 19:00:00
3:00 PM,19.4,14.0,80,30.04,30.0,SW,6.9,-,N/A,,Partly Cloudy,220,2012-12-11 20:00:00
4:00 PM,17.6,12.2,79,30.07,40.0,SW,5.8,-,N/A,,Partly Cloudy,230,2012-12-11 21:00:00
5:00 PM,15.8,12.2,86,30.10,25.0,SW,5.8,-,N/A,,Clear,230,2012-12-11 22:00:00
6:00 PM,15.8,12.2,86,30.12,25.0,SW,6.9,-,N/A,,Clear,230,2012-12-11 23:00:00
7:00 PM,14.0,10.4,86,30.15,25.0,WSW,5.8,-,N/A,,Clear,250,2012-12-12 00:00:00
8:00 PM,14.0,10.4,86,30.17,25.0,West,3.5,-,N/A,,Clear,260,2012-12-12 01:00:00
9:00 PM,12.2,8.6,85,30.19,25.0,SW,2.3,-,N/A,,Clear,230,2012-12-12 02:00:00
10:00 PM,10.4,6.8,85,30.19,25.0,Calm,Calm,-,N/A,,Clear,0,2012-12-12 03:00:00
11:00 PM,10.4,6.8,85,30.21,25.0,WSW,2.3,-,N/A,,Clear,240,2012-12-12 04:00:00